Simultaneous Nadir Overpasses (SNOs) Predictions

Prediction of SNOs between GOES-17 and NOAA-20 Satellite Orbit:

Table of predicted SNOs for the next 14.0 days since TLE Epoch: 7/6/2024
Index Date Time (GOES-17) GOES-17 Lat,Lon NOAA-20 Lat,Lon Distance(km) Time Diff (sec)
1 07/06/2024 08:04:37 -0.02,-104.70 -0.98,-100.50 478.78 80
2 07/07/2024 20:26:35 0.02,-104.71 -0.21,-105.81 125.60 80
3 07/08/2024 20:10:30 0.01,-104.71 0.78,-101.28 390.51 80
4 07/10/2024 08:32:19 -0.01,-104.70 0.41,-106.56 211.64 80
5 07/11/2024 08:10:54 -0.01,-104.70 -0.59,-102.03 304.60 80
6 07/12/2024 20:32:51 0.01,-104.72 -0.60,-107.34 299.41 80
7 07/13/2024 20:16:48 0.01,-104.72 0.46,-102.82 216.97 80
8 07/15/2024 08:38:36 -0.01,-104.71 0.71,-108.10 384.97 80
9 07/16/2024 08:17:12 -0.01,-104.71 -0.29,-103.57 131.10 80
10 07/17/2024 20:39:09 0.02,-104.72 -0.89,-108.88 473.70 80
11 07/18/2024 20:23:05 0.02,-104.72 0.11,-104.35 42.22 80
